AF5AA Weather Reports


Display with metric or nautical units.
time (UTC)temp
F
wind
direction
speed
MPH
gust
MPH
rain 1hr
in
rain 24hr
in
rain mn
in
humidity
%
barometer
mb
20260506173258 62 115 0.0 0.0 0.00 0.00 0.00 85 1012.2
20260506172754 62 123 1.0 1.0 0.00 0.00 0.00 86 1012.1
20260506172251 62 93 0.0 0.0 0.00 0.00 0.00 86 1013.0
20260506171749 62 138 0.0 0.0 0.00 0.00 0.00 86 1013.2
20260506171246 61 13 1.0 1.0 0.00 0.00 0.00 86 1013.1
20260506170743 61 138 0.0 1.0 0.00 0.00 0.00 87 1013.3
20260506170239 62 183 0.0 1.0 0.00 0.00 0.00 87 1013.5
20260506165738 61 118 0.0 0.0 0.00 0.00 0.00 87 1013.4
20260506165235 61 180 0.0 0.0 0.00 0.00 0.00 88 1013.5
20260506164732 61 191 1.0 2.0 0.00 0.00 0.00 88 1013.8
20260506164229 61 96 0.0 0.0 0.00 0.00 0.00 88 1013.9
20260506163726 62 99 0.0 0.0 0.00 0.00 0.00 88 1014.1
20260506163220 62 101 0.0 0.0 0.00 0.00 0.00 88 1014.0
20260506162717 62 93 0.0 0.0 0.00 0.00 0.00 88 1013.7
20260506162215 62 148 0.0 0.0 0.00 0.00 0.00 88 1013.6
20260506161712 62 82 0.0 1.0 0.00 0.00 0.00 87 1013.6
20260506161209 62 67 0.0 0.0 0.00 0.00 0.00 88 1013.3
20260506160706 62 80 0.0 0.0 0.00 0.00 0.00 88 1013.3
20260506160203 62 39 0.0 1.0 0.00 0.00 0.00 88 1012.8
20260506155701 62 82 0.0 0.0 0.00 0.00 0.00 87 1012.6
20260506155158 62 79 0.0 0.0 0.00 0.00 0.00 88 1012.6
20260506153306 62 109 0.0 0.0 0.00 0.00 0.00 87 1012.0
20260506152803 62 59 1.0 1.0 0.00 0.00 0.00 87 1011.7
20260506152300 62 118 0.0 0.0 0.00 0.00 0.00 88 1011.7
20260506151759 62 99 0.0 0.0 0.00 0.00 0.00 88 1011.8
20260506151255 62 64 0.0 0.0 0.00 0.00 0.00 89 1011.8
20260506150751 62 108 0.0 0.0 0.00 0.00 0.00 89 1012.1
20260506150249 62 116 0.0 0.0 0.00 0.00 0.00 89 1011.9
20260506145746 62 105 0.0 0.0 0.00 0.00 0.00 89 1012.0
20260506145242 63 114 0.0 0.0 0.00 0.00 0.00 89 1011.7
20260506144740 63 144 0.0 0.0 0.00 0.00 0.00 88 1011.6
20260506144237 63 75 1.0 1.0 0.00 0.00 0.00 89 1011.4
20260506143734 63 112 0.0 1.0 0.00 0.00 0.00 89 1011.3
20260506143231 63 109 0.0 1.0 0.00 0.00 0.00 89 1011.1
20260506142730 63 75 0.0 0.0 0.00 0.00 0.00 89 1011.1
20260506142227 64 53 1.0 1.0 0.00 0.00 0.00 88 1011.0
20260506141725 64 90 0.0 1.0 0.00 0.00 0.00 88 1011.2
20260506141224 64 123 0.0 0.0 0.00 0.00 0.00 88 1011.0
20260506140721 64 68 0.0 0.0 0.00 0.00 0.00 88 1010.8
20260506140217 64 166 0.0 1.0 0.00 0.00 0.00 89 1010.8
20260506135714 65 302 0.0 1.0 0.00 0.00 0.00 89 1010.8
20260506135211 65 334 1.0 2.0 0.00 0.00 0.00 88 1010.7
20260506134707 66 107 0.0 0.0 0.00 0.00 0.00 88 1010.6
20260506134203 67 90 0.0 0.0 0.00 0.00 0.00 87 1010.7
20260506133701 67 88 0.0 0.0 0.00 0.00 0.00 88 1010.5
20260506133157 68 91 0.0 1.0 0.00 0.00 0.00 87 1010.4
20260506132655 69 103 0.0 1.0 0.00 0.00 0.00 86 1010.2
20260506132151 70 116 0.0 0.0 0.00 0.00 0.00 87 1010.0
20260506131649 72 65 1.0 1.0 0.00 0.00 0.00 88 1010.2
20260506131145 74 55 2.0 2.0 0.00 0.00 0.00 97 1009.9
20260506130642 74 102 0.0 0.0 0.00 0.00 0.00 97 1009.8
20260506130140 74 102 0.0 0.0 0.00 0.00 0.00 97 1009.7
20260506125638 74 102 0.0 0.0 0.00 0.00 0.00 97 1009.7
20260506125135 74 102 0.0 0.0 0.00 0.00 0.00 97 1009.6
20260506124633 74 102 0.0 0.0 0.00 0.00 0.00 97 1009.6
20260506124130 74 102 0.0 0.0 0.00 0.00 0.00 97 1009.4
20260506123628 74 102 0.0 0.0 0.00 0.00 0.00 97 1009.5
20260506123127 74 102 0.0 0.0 0.00 0.00 0.00 97 1009.4
20260506122622 74 102 0.0 0.0 0.00 0.00 0.00 97 1009.5
20260506122121 74 102 0.0 0.0 0.00 0.00 0.00 97 1009.4
20260506121618 74 105 0.0 0.0 0.00 0.00 0.00 97 1009.2
20260506121114 74 100 0.0 0.0 0.00 0.00 0.00 97 1009.4
20260506120612 74 100 0.0 0.0 0.00 0.00 0.00 97 1009.4
20260506120109 74 99 0.0 0.0 0.00 0.00 0.00 96 1009.2
20260506115608 74 105 0.0 0.0 0.00 0.00 0.00 96 1009.2
20260506115106 74 113 0.0 0.0 0.00 0.00 0.00 96 1008.9
20260506114602 74 113 0.0 0.0 0.00 0.00 0.00 96 1008.9
20260506114101 74 113 0.0 0.0 0.00 0.00 0.00 96 1008.9
20260506113558 74 105 0.0 0.0 0.00 0.00 0.00 96 1008.9
20260506113055 74 105 0.0 0.0 0.00 0.00 0.00 96 1009.0
20260506112552 74 101 0.0 0.0 0.00 0.00 0.00 95 1008.7
20260506112049 74 98 0.0 0.0 0.00 0.00 0.00 95 1008.6
20260506111547 74 107 0.0 0.0 0.00 0.00 0.00 95 1008.7
20260506111044 74 138 0.0 0.0 0.00 0.00 0.00 95 1008.5
20260506110542 74 111 0.0 0.0 0.00 0.00 0.00 95 1008.5
20260506110039 74 112 0.0 0.0 0.00 0.00 0.00 95 1008.5
20260506105535 74 108 0.0 0.0 0.00 0.00 0.00 95 1008.3
20260506105032 74 115 0.0 0.0 0.00 0.00 0.00 95 1008.4
20260506104530 74 115 0.0 0.0 0.00 0.00 0.00 95 1008.3
20260506104028 74 112 0.0 0.0 0.00 0.00 0.00 95 1008.2
20260506103525 74 103 0.0 0.0 0.00 0.00 0.00 95 1007.9
20260506103021 74 111 0.0 0.0 0.00 0.00 0.00 95 1007.9
20260506102520 74 112 0.0 0.0 0.00 0.00 0.00 95 1008.0
20260506102017 74 117 0.0 0.0 0.00 0.00 0.00 95 1008.1
20260506101513 74 105 0.0 0.0 0.00 0.00 0.00 95 1008.1
20260506101011 74 105 0.0 0.0 0.00 0.00 0.00 95 1007.9
20260506100509 74 113 0.0 0.0 0.00 0.00 0.00 95 1007.9
20260506100007 74 112 0.0 0.0 0.00 0.00 0.00 95 1008.1
20260506095505 74 112 0.0 0.0 0.00 0.00 0.00 95 1007.9
20260506095001 74 112 0.0 0.0 0.00 0.00 0.00 95 1008.1
20260506094459 74 110 0.0 0.0 0.00 0.00 0.00 95 1008.1
20260506093956 74 110 0.0 0.0 0.00 0.00 0.00 95 1007.9
20260506093455 74 100 0.0 0.0 0.00 0.00 0.00 95 1007.9
20260506092952 74 109 0.0 1.0 0.00 0.00 0.00 95 1007.8
20260506092450 74 116 0.0 0.0 0.00 0.00 0.00 95 1007.9
20260506091946 74 136 0.0 0.0 0.00 0.00 0.00 94 1007.7
20260506091444 74 111 0.0 0.0 0.00 0.00 0.00 94 1007.8
20260506090941 75 111 0.0 0.0 0.00 0.00 0.00 94 1007.7
20260506090439 75 114 0.0 0.0 0.00 0.00 0.00 93 1007.7
20260506085935 75 108 0.0 0.0 0.00 0.00 0.00 93 1007.6
20260506085432 75 119 0.0 0.0 0.00 0.00 0.00 93 1007.6
20260506084928 75 106 0.0 1.0 0.00 0.00 0.00 93 1007.8
20260506084426 75 115 0.0 0.0 0.00 0.00 0.00 93 1007.6
20260506083921 75 97 0.0 0.0 0.00 0.00 0.00 93 1007.5
20260506083419 75 109 0.0 0.0 0.00 0.00 0.00 93 1007.6
20260506082916 75 119 0.0 0.0 0.00 0.00 0.00 93 1007.8
20260506082414 75 101 1.0 1.0 0.00 0.00 0.00 94 1007.7
20260506081909 75 109 0.0 0.0 0.00 0.00 0.00 94 1007.8
20260506081408 75 111 0.0 0.0 0.00 0.00 0.00 94 1007.9
20260506080905 75 103 0.0 0.0 0.00 0.00 0.00 94 1007.6
20260506080402 75 132 0.0 0.0 0.00 0.00 0.00 94 1007.7
20260506073345 74 116 0.0 0.0 0.00 0.00 0.00 97 1008.0
20260506072842 74 111 0.0 0.0 0.00 0.00 0.00 97 1007.8
20260506072340 74 111 0.0 0.0 0.00 0.00 0.00 97 1007.7
20260506071837 74 103 0.0 0.0 0.00 0.00 0.00 97 1007.7
20260506071335 74 112 0.0 0.0 0.00 0.00 0.00 97 1007.8
20260506070831 73 112 0.0 0.0 0.00 0.00 0.00 97 1007.9
20260506070329 73 112 0.0 0.0 0.00 0.00 0.00 97 1007.8
20260506062306 73 108 0.0 0.0 0.00 0.00 0.00 96 1007.9
20260506061802 73 108 0.0 0.0 0.00 0.00 0.00 96 1008.0
20260506061259 73 108 0.0 0.0 0.00 0.00 0.00 96 1007.9
20260506060757 73 108 0.0 0.0 0.00 0.00 0.00 96 1007.8
20260506060254 73 110 0.0 0.0 0.00 0.00 0.00 96 1008.0
20260506051226 73 112 0.0 0.0 0.00 0.00 0.00 96 1007.7
20260506050724 73 108 0.0 0.0 0.00 0.00 0.00 96 1007.8
20260506050221 73 113 0.0 0.0 0.00 0.00 0.00 96 1007.7
20260506044712 73 113 0.0 0.0 0.00 0.01 0.01 96 1007.8
20260506044209 73 113 0.0 0.0 0.00 0.01 0.01 95 1007.8
20260506043707 73 113 0.0 0.0 0.00 0.01 0.01 95 1007.9
20260506043204 73 113 0.0 0.0 0.00 0.01 0.01 95 1007.6
20260506042703 73 113 0.0 0.0 0.00 0.01 0.01 95 1007.5
20260506042201 73 114 0.0 0.0 0.00 0.01 0.01 95 1007.5
20260506041659 73 114 0.0 0.0 0.00 0.01 0.01 95 1007.4
20260506041156 73 113 0.0 0.0 0.00 0.01 0.01 95 1007.2
20260506040653 73 113 0.0 0.0 0.00 0.01 0.01 94 1007.0
20260506040150 74 114 0.0 0.0 0.00 0.01 0.01 94 1007.1
20260506035647 74 110 0.0 0.0 0.00 0.01 0.01 94 1006.9
20260506035144 74 104 0.0 0.0 0.07 0.01 0.01 94 1006.7
20260506034640 74 104 0.0 0.0 0.07 0.01 0.01 94 1006.7
20260506034137 74 104 0.0 0.0 0.00 0.00 0.00 93 1006.8
20260506033635 74 101 0.0 0.0 0.00 0.00 0.00 93 1006.6
20260506033131 74 109 0.0 0.0 0.00 0.00 0.00 93 1006.8
20260506032629 74 101 0.0 0.0 0.00 0.00 0.00 93 1006.5
20260506032126 74 112 0.0 0.0 0.00 0.00 0.00 93 1006.4
20260506031623 74 110 0.0 0.0 0.00 0.00 0.00 94 1006.3
20260506031119 74 110 0.0 0.0 0.00 0.00 0.00 94 1006.6
20260506030618 74 113 0.0 0.0 0.00 0.00 0.00 94 1006.6
20260506030115 74 106 0.0 0.0 0.00 0.00 0.00 94 1006.3
20260506025612 74 117 0.0 0.0 0.00 0.00 0.00 94 1006.4
20260506025108 74 114 0.0 0.0 0.00 0.00 0.00 94 1006.2
20260506024605 74 114 0.0 0.0 0.00 0.00 0.00 94 1006.3
20260506024101 75 105 0.0 0.0 0.00 0.00 0.00 94 1006.3
20260506023557 75 99 0.0 0.0 0.00 0.00 0.00 94 1006.4
20260506023055 75 99 0.0 0.0 0.00 0.00 0.00 94 1006.3
20260506022552 75 112 0.0 0.0 0.00 0.00 0.00 94 1006.1
20260506022050 75 112 0.0 0.0 0.00 0.00 0.00 94 1006.3
20260506021547 75 112 0.0 0.0 0.00 0.00 0.00 93 1006.4
20260506021044 75 104 0.0 0.0 0.00 0.00 0.00 93 1006.5
20260506020542 76 100 0.0 0.0 0.00 0.00 0.00 93 1006.1
20260506020039 76 100 0.0 0.0 0.00 0.00 0.00 92 1006.2
20260506015536 76 100 0.0 0.0 0.00 0.00 0.00 92 1006.0
20260506015033 76 98 0.0 0.0 0.00 0.00 0.00 92 1006.0
20260506014531 76 97 0.0 0.0 0.00 0.00 0.00 92 1005.9
20260506014026 76 98 0.0 0.0 0.00 0.00 0.00 92 1005.8
20260506013525 76 107 0.0 0.0 0.00 0.00 0.00 91 1005.5
20260506013021 77 107 0.0 0.0 0.00 0.00 0.00 91 1005.8
20260506012517 77 107 0.0 0.0 0.00 0.00 0.00 91 1005.6
20260506012014 77 106 0.0 0.0 0.00 0.00 0.00 90 1005.8
20260506011512 77 110 0.0 0.0 0.00 0.00 0.00 90 1005.4
20260506011008 78 110 0.0 0.0 0.00 0.00 0.00 89 1005.3
20260506010508 78 110 0.0 0.0 0.00 0.00 0.00 88 1005.5
20260506010003 78 108 0.0 0.0 0.00 0.00 0.00 88 1005.2
20260506005501 79 103 0.0 0.0 0.00 0.00 0.00 87 1005.1
20260506004956 79 102 0.0 0.0 0.00 0.00 0.00 86 1005.1
20260506004454 79 102 0.0 0.0 0.00 0.00 0.00 86 1005.0
20260506003950 79 102 0.0 0.0 0.00 0.00 0.00 85 1005.0
20260506003447 80 102 0.0 0.0 0.00 0.00 0.00 84 1004.8
20260506002943 80 102 0.0 0.0 0.00 0.00 0.00 83 1005.0
20260506002439 80 107 0.0 0.0 0.00 0.00 0.00 83 1004.8
20260506001934 80 107 0.0 0.0 0.00 0.00 0.00 83 1004.8
20260506001432 80 105 0.0 0.0 0.00 0.00 0.00 82 1004.8
20260506000929 80 105 0.0 0.0 0.00 0.00 0.00 82 1004.8
20260506000427 80 114 0.0 0.0 0.00 0.00 0.00 81 1004.9
20260505235923 81 106 0.0 0.0 0.00 0.00 0.00 82 1005.0
20260505235422 81 95 0.0 0.0 0.00 0.00 0.00 81 1004.8
20260505234918 81 120 0.0 0.0 0.00 0.00 0.00 81 1004.9
20260505234416 81 99 0.0 0.0 0.00 0.00 0.00 80 1004.9
20260505233912 81 99 0.0 0.0 0.00 0.00 0.00 79 1004.6
20260505233410 81 101 0.0 0.0 0.00 0.00 0.00 79 1004.7
20260505232907 82 91 0.0 0.0 0.00 0.00 0.00 78 1004.7
20260505232405 82 109 0.0 0.0 0.00 0.00 0.00 78 1004.5
20260505231901 82 119 0.0 0.0 0.00 0.00 0.00 76 1004.4
20260505231359 82 109 0.0 0.0 0.00 0.00 0.00 76 1004.4
20260505230857 82 90 1.0 1.0 0.00 0.00 0.00 75 1004.5
20260505230354 82 126 0.0 1.0 0.00 0.00 0.00 73 1004.5
20260505225850 83 122 0.0 0.0 0.00 0.00 0.00 76 1004.7
20260505225348 83 138 2.0 2.0 0.00 0.00 0.00 73 1004.6
20260505224843 83 149 0.0 1.0 0.00 0.00 0.00 73 1004.6
20260505224341 84 108 1.0 1.0 0.00 0.00 0.00 73 1004.5
20260505223838 84 315 2.0 2.0 0.00 0.00 0.00 72 1004.4
20260505223335 84 105 0.0 0.0 0.00 0.00 0.00 72 1004.3
20260505222830 83 133 0.0 0.0 0.00 0.00 0.00 72 1004.3
20260505222327 83 89 0.0 1.0 0.00 0.00 0.00 73 1004.5
20260505221824 83 117 0.0 0.0 0.00 0.00 0.00 73 1004.5
20260505221321 83 115 0.0 0.0 0.00 0.00 0.00 73 1004.7
20260505220818 84 126 1.0 1.0 0.00 0.00 0.00 74 1004.7
20260505220315 84 128 1.0 1.0 0.00 0.00 0.00 75 1004.7
20260505215813 83 92 0.0 1.0 0.00 0.00 0.00 76 1004.9
20260505215310 84 107 1.0 1.0 0.00 0.00 0.00 75 1005.1
20260505214808 84 123 0.0 0.0 0.00 0.00 0.00 72 1004.9
20260505214306 85 102 0.0 0.0 0.00 0.00 0.00 70 1004.9
20260505213802 85 146 1.0 1.0 0.00 0.00 0.00 71 1005.0
20260505213300 85 150 1.0 2.0 0.00 0.00 0.00 70 1005.0
20260505212755 85 163 0.0 1.0 0.00 0.00 0.00 70 1005.1
20260505212253 84 122 0.0 0.0 0.00 0.00 0.00 70 1005.0
20260505211749 84 117 0.0 0.0 0.00 0.00 0.00 70 1005.1
20260505211247 84 136 2.0 2.0 0.00 0.00 0.00 71 1005.2
20260505210743 84 111 0.0 0.0 0.00 0.00 0.00 71 1005.0
20260505210240 84 91 0.0 0.0 0.00 0.00 0.00 73 1005.3
20260505205738 83 130 0.0 1.0 0.00 0.00 0.00 73 1005.2
20260505205236 84 115 0.0 1.0 0.00 0.00 0.00 73 1005.3
20260505204732 84 170 1.0 1.0 0.00 0.00 0.00 72 1005.2
20260505204230 84 120 0.0 1.0 0.00 0.00 0.00 72 1005.5
20260505203727 83 129 1.0 1.0 0.00 0.00 0.00 71 1005.4
20260505203224 83 134 1.0 1.0 0.00 0.00 0.00 73 1005.7
20260505202719 82 143 0.0 0.0 0.00 0.00 0.00 73 1005.6
20260505202216 82 103 0.0 0.0 0.00 0.00 0.00 73 1005.8
20260505201712 82 195 2.0 2.0 0.00 0.00 0.00 74 1005.7
20260505201210 82 107 0.0 1.0 0.00 0.00 0.00 75 1005.9
20260505200708 82 114 0.0 0.0 0.00 0.00 0.00 73 1005.8
20260505200205 82 111 1.0 2.0 0.00 0.00 0.00 73 1006.0
20260505195701 82 135 1.0 2.0 0.00 0.00 0.00 73 1006.1
20260505195158 82 188 1.0 2.0 0.00 0.00 0.00 72 1006.1
20260505194655 83 192 1.0 1.0 0.00 0.00 0.00 73 1006.1
20260505194151 83 161 0.0 1.0 0.00 0.00 0.00 72 1005.9
20260505193648 82 157 0.0 0.0 0.00 0.00 0.00 74 1006.1
20260505193145 82 88 1.0 1.0 0.00 0.00 0.00 74 1005.9
20260505192644 82 148 0.0 0.0 0.00 0.00 0.00 73 1006.1
20260505192141 82 120 0.0 0.0 0.00 0.00 0.00 75 1006.2
20260505191639 81 97 0.0 0.0 0.00 0.00 0.00 74 1006.3
20260505191137 82 112 1.0 1.0 0.00 0.00 0.00 75 1006.4
20260505190633 82 179 1.0 2.0 0.00 0.00 0.00 73 1006.2
20260505190127 82 114 1.0 1.0 0.00 0.00 0.00 74 1006.3
20260505185624 82 104 0.0 1.0 0.00 0.00 0.00 75 1006.5
20260505185121 81 127 1.0 1.0 0.00 0.00 0.00 75 1006.3
20260505184617 81 127 1.0 2.0 0.00 0.00 0.00 76 1006.4
20260505184114 80 116 1.0 1.0 0.00 0.00 0.00 77 1006.2
20260505183611 80 95 0.0 0.0 0.00 0.00 0.00 77 1006.4
20260505183109 80 72 2.0 3.0 0.00 0.00 0.00 78 1006.6
20260505182604 80 144 1.0 1.0 0.00 0.00 0.00 77 1006.5
20260505182102 79 115 0.0 0.0 0.00 0.00 0.00 78 1006.6
20260505181558 79 166 1.0 1.0 0.00 0.00 0.00 77 1006.7
20260505181056 79 214 2.0 3.0 0.00 0.00 0.00 78 1006.7
20260505180551 80 116 0.0 0.0 0.00 0.00 0.00 78 1006.7
20260505180049 79 108 0.0 1.0 0.00 0.00 0.00 79 1006.7
20260505175544 79 153 0.0 0.0 0.00 0.00 0.00 79 1006.7
20260505175041 79 172 1.0 2.0 0.00 0.00 0.00 78 1006.6
20260505174538 79 152 0.0 0.0 0.00 0.00 0.00 79 1006.6
20260505174034 79 180 1.0 2.0 0.00 0.00 0.00 79 1006.9